Ramona, CA

4:43 PM PST on November 21, 2019 (GMT -0800)
Ramona

Weather History for KRNM - September, 2019

Change the Weather History Date:

Friday, September 20, 2019

  Actual Average Record
Temperature  
Mean Temperature 65 °F 70 °F  
Max Temperature 82 °F 86 °F 102 °F (2015)
Min Temperature 48 °F 53 °F 40 °F (1999)
Degree Days  
Heating Degree Days 0 1  
Month to date heating degree days 1 1  
Since 1 July heating degree days 1 4  
Cooling Degree Days 0 5  
Month to date cooling degree days 173 138  
Year to date cooling degree days 895 751  
Growing Degree Days 15 (Base 50)    
Moisture  
Dew Point 51 °F    
Average Humidity 64    
Maximum Humidity 93    
Minimum Humidity 34    
Precipitation  
Precipitation 0.00 in 0.01 in 0.27 in (2016)
Month to date precipitation T 0.21  
Year to date precipitation 15.31 11.82  
Sea Level Pressure  
Sea Level Pressure 29.87 in    
Wind  
Wind Speed 4 mph (West)    
Max Wind Speed 13 mph    
Max Gust Speed 17 mph    
Visibility 10 miles    
Events      
T = Trace of Precipitation, MM = Missing Value Source: NWS Daily Summary

Daily Weather History Graph

Daily Weather History Graph

Search for Another Location

Airport or City:

Astronomy

Sep. 20, 2019 Rise Set
Actual Time 6:34 AM PDT 6:47 PM PDT
Civil Twilight 6:09 AM PDT 7:11 PM PDT
Nautical Twilight 5:40 AM PDT 7:40 PM PDT
Astronomical Twilight 5:11 AM PDT 8:09 PM PDT
Moon 10:58 PM PDT (9/20) 12:25 PM PDT (9/20)
Length of Visible Light 13h 02m
Length of Day
12h 12m
Waning Gibbous, 64% of the Moon is Illuminated
Sep 20
Waning Gibbous
Sep 21
Last Quarter
Sep 28
New
Oct 5
First Quarter
Oct 13
Full

Hourly Weather History & Observations

Time (PDT) Temp. Dew Point Humidity Pressure Visibility Wind Dir Wind Speed Gust Speed Precip Events Conditions
12:46 AM 57.9 °F 53.1 °F 84% 29.88 in 10.0 mi West 4.6 mph - N/A   Scattered Clouds
12:53 AM 55.9 °F 53.1 °F 90% 29.85 in 10.0 mi WNW 3.5 mph - N/A   Partly Cloudy
1:53 AM 55.0 °F 52.0 °F 89% 29.86 in 10.0 mi Calm Calm - N/A   Clear
2:17 AM 55.9 °F 52.0 °F 87% 29.89 in 10.0 mi Calm Calm - N/A   Mostly Cloudy
2:53 AM 59.0 °F 54.0 °F 83% 29.85 in 10.0 mi Calm Calm - N/A   Overcast
3:12 AM 59.0 °F 54.0 °F 83% 29.89 in 10.0 mi Calm Calm - N/A   Overcast
3:45 AM 54.0 °F 51.1 °F 90% 29.88 in 10.0 mi East 3.5 mph - N/A   Scattered Clouds
4:53 AM 52.0 °F 48.0 °F 86% 29.85 in 10.0 mi Calm Calm - N/A   Clear
5:53 AM 48.9 °F 46.0 °F 90% 29.87 in 10.0 mi Calm Calm - N/A   Clear
6:53 AM 48.9 °F 45.0 °F 86% 29.88 in 10.0 mi East 3.5 mph - N/A   Partly Cloudy
7:20 AM 53.1 °F 48.0 °F 83% 29.90 in 10.0 mi Calm Calm - N/A   Mostly Cloudy
7:30 AM 54.0 °F 46.0 °F 75% 29.91 in 10.0 mi ESE 3.5 mph - N/A   Mostly Cloudy
7:53 AM 55.9 °F 46.9 °F 72% 29.89 in 10.0 mi Calm Calm - N/A   Overcast
8:21 AM 57.9 °F 52.0 °F 81% 29.92 in 10.0 mi Calm Calm - N/A   Scattered Clouds
8:53 AM 63.0 °F 50.0 °F 63% 29.89 in 10.0 mi Calm Calm - N/A   Clear
9:53 AM 71.1 °F 42.1 °F 35% 29.88 in 10.0 mi North 4.6 mph - N/A   Clear
10:53 AM 73.0 °F 51.1 °F 46% 29.88 in 10.0 mi Variable 5.8 mph - N/A   Clear
11:53 AM 75.9 °F 50.0 °F 40% 29.86 in 10.0 mi Variable 5.8 mph - N/A   Clear
12:53 PM 79.0 °F 48.9 °F 35% 29.85 in 10.0 mi WSW 6.9 mph - N/A   Clear
1:53 PM 82.0 °F 51.1 °F 34% 29.83 in 10.0 mi West 12.7 mph 17.3 mph N/A   Clear
2:53 PM 78.1 °F 55.0 °F 45% 29.83 in 10.0 mi WSW 10.4 mph - N/A   Clear
3:53 PM 78.1 °F 54.0 °F 43% 29.82 in 10.0 mi West 10.4 mph - N/A   Clear
4:53 PM 75.9 °F 54.0 °F 46% 29.83 in 10.0 mi West 6.9 mph - N/A   Clear
5:53 PM 73.0 °F 55.0 °F 53% 29.83 in 10.0 mi West 8.1 mph - N/A   Clear
6:53 PM 66.9 °F 55.0 °F 66% 29.84 in 10.0 mi West 6.9 mph - N/A   Clear
7:53 PM 63.0 °F 55.9 °F 78% 29.85 in 10.0 mi West 5.8 mph - N/A   Clear
8:53 PM 60.1 °F 54.0 °F 80% 29.86 in 10.0 mi WNW 3.5 mph - N/A   Clear
9:53 PM 59.0 °F 55.0 °F 87% 29.88 in 10.0 mi WSW 3.5 mph - N/A   Clear
10:53 PM 59.0 °F 52.0 °F 78% 29.88 in 10.0 mi Calm Calm - N/A   Clear
11:53 PM 57.0 °F 51.1 °F 81% 29.87 in 10.0 mi Calm Calm - N/A   Clear